Showing default

LAOSAT 1, 41034

Orbit data source: Space-Track

LAOSAT 1, 41034 is a Laotian payload satellite in GEO that was launched on Fri, 20 Nov 2015 UTC via a CHANG ZHENG 3B launch vehicle from the Xichang Space Center, China (XSC). Payloads include a variety of satellites, spacecraft, and rockets equipped with specific instruments for various scientific and technological missions. These include communications satellites like Starlink; space stations such as the ISS; scientific satellites like the Hubble; Earth observation satellites from companies like Planet Labs, Umbra, and HawkEye 360; GPS; miniature CubeSats for education and research; and military/defense satellites.

Not visible in the next 10 days
LAOSAT 1 details
Identifier
41034, 2015-067A
Orbit
GEO
Last TLE update10 hours ago
Origin
Flag of LALANAST/APMT (LA / LAOS)
ManufacturerCAST
MissionOperational Civil Communications
Bus & MotorDFH-3B, DFH-4 LAE
Mass~5,086 kg wet, ~2,500 kg dry
Launch date (UTC)
2015-11-20 (9 years ago)
Launch vehicle
CHANG ZHENG 3B
Launch site
Xichang Space Center, China (XSC)
Object type
Payload
Rocket body
Debris
Shape & HBRBox + 2 Pan, 30 m
Radar Cross Section34.063 m², Large (>1 m²)

Expand to show TLE details & history

TLE from 10 hours ago
0 LAOSAT 1
1 41034U 15067A   24361.26916083 -.00000314  00000-0  00000-0 0  9991
2 41034   0.0440 156.8291 0001523  59.5439 104.3013  1.00272685 33469
Epoch: 2024-12-26T06:27Z
Definitive object data (Epoch: 2024-12-26T06:27:35.495Z)
Latitude-0.02045°
Longitude128.53477°
Altitude35,787.392 km
Speed3.075 km/s
True Right ascension21h 22m 44s
True Declination0° 01' 14"
Sunlit
Object was in daylight at TLE epoch
Visualization TLE readout
Latitude0.01279°
Longitude-87.20273°
Altitude35,788.259 km
Speed3.075 km/s
Apparent Right ascension06h 39m 46s
Apparent Declination-5° 07' 46"
Sunlit
Object is in daylight
Visualization observer readout
Local Sidereal Time15:25:18
Azimuth295.34° NW
Elevation-34.219°
Doppler factor1
Orbital elements
Apogee altitude35,793.835 km
Perigee altitude35,780.991 km
Semi-major axis42,165.55 km
Eccentricity0.0001523
Inclination0.044°
RAAN156.8291°
Arg. of periapsis59.5439°
True anomaly104.31821°
Mean anomaly104.3013°
Eccentric anomaly104.30976°
Mean motion0.25067 °/min
BSTARUnknown
Orbital period1436.14 mins
Loading historical data...
41034 neighbors
Authenticating...
Loading maneuver chart data...
Loading historical data...
Loading historical data...
Loading historical data...
Loading historical data...
Loading historical data...
Loading historical data...
Loading historical data...
Other satellites on launch #67 in the year 2015 (2015-11-20 UTC)

LAOSAT 1 Visibility forecast

Observer location: undefined°, undefined

LAOSAT 1 is not visible in the next 10 days
Span
Click to sort rows by Start time (UTC) header in descending order
Start Az.
Max El. time (UTC)
Max El. Az.
Max El.
End time (UTC)
End Az.
|